Regional Weather Roundup
Issued by NWS

Home | Current Version | Previous Version | Graphics & Text | Print | Product List | Glossary Off
Versions: 1 2 3 4 5 6 7 8 9 10 11 12 13 14 15 16 17 18 19 20 21 22 23 24 25 26 27 28 29 30 31 32 33 34 35 36 37 38 39 40 41 42 43 44 45 46 47 48 49 50

000
ASUS43 KMPX 020410
RWRMN
WEATHER ROUNDUP FOR MINNESOTA
NATIONAL WEATHER SERVICE TWIN CITIES/CHANHASSEN MN
1100 PM CDT MON SEP 01 2014


NOTE: "FAIR" INDICATES FEW OR NO CLOUDS BELOW 12,000 FEET WITH NO
SIGNIFICANT WEATHER AND/OR OBSTRUCTIONS TO VISIBILITY. N/A MEANS
CURRENT SKY AND/OR WEATHER CONDITIONS ARE NOT AVAILABLE.

MNZ060>063-068>070-020500-
   Twin Cities Metro

CITY           SKY/WX    TMP DP  RH WIND       PRES   REMARKS
TWIN CITIES    PTCLDY    67  58  72 SW3       29.81S
ST PAUL        CLEAR     63  58  83 CALM      29.81R
CRYSTAL        CLEAR     64  58  80 CALM      29.79S
BLAINE         CLEAR     63  61  94 SW3       29.80F
LAKEVILLE      CLEAR     63  57  82 CALM      29.82S
EDEN PRAIRIE   CLEAR     64  59  83 SW3       29.80S
SOUTH ST PAUL  CLEAR     64  57  78 SW3       29.80S
LAKE ELMO      FAIR      59  57  94 CALM      29.82S
$$
MNZ001>005-007-008-013>017-022>024-027-028-020500-
   Northwest Minnesota

CITY           SKY/WX    TMP DP  RH WIND       PRES   REMARKS
BEMIDJI        CLEAR     55  51  85 W7        29.79R
HALLOCK        CLEAR     55  52  88 SW6       29.74R
ROSEAU           N/A     55  52  88 SW7       29.74R
WARROAD        CLEAR     55  54  94 SW8       29.73S
THIEF RVR FALL CLEAR     57  55  94 SW10      29.78R
CROOKSTON      PTCLDY    55  55 100 SW7       29.79S
FOSSTON        CLEAR     50  48  93 S7        29.80S
DETROIT LAKES  CLEAR     55  54  94 CALM      29.83R
MOORHEAD       CLEAR     57  57 100 CALM      29.82S
PARK RAPIDS    PTCLDY    53  52  96 W5        29.80S
MAHNOMEN       FAIR      53  52  97 S6        29.80F
$$
MNZ006-009>011-018-025>026-020500-
   North Central Minnesota

CITY           SKY/WX    TMP DP  RH WIND       PRES   REMARKS
BAUDETTE       CLEAR     51  49  92 SW3       29.73R
FLAG ISLAND    CLEAR     59  54  82 SW14      29.69R
INTL FALLS     CLEAR     48  47  96 SW3       29.73R
WASKISH        CLEAR     55  54  94 S3        29.76R
BIG FORK       PTCLDY    54  50  87 CALM      29.77R
LONGVILLE      PTCLDY    55  54  94 CALM      29.78S
GRAND RAPIDS   MOCLDY    61  52  72 W6        29.78R
CRANE LAKE     PTCLDY    52  50  93 CALM      29.73F
ORR            MOCLDY    54  50  87 CALM      29.72R
COOK           MOCLDY    55  52  88 CALM      29.75S
WALKER         FAIR      54  52  94 CALM      29.78F
$$
MNZ012-019>021-037-020500-
   Northeast Minnesota

CITY           SKY/WX    TMP DP  RH WIND       PRES   REMARKS
DULUTH         PTCLDY    57  50  77 W7        29.77S
ELY            PTCLDY    50  48  93 W5        29.74R
HIBBING        CLOUDY    53  50  89 CALM      29.76R
EVELETH        MOCLDY    57  54  88 W3        29.76S
DULUTH HARBOR  PTCLDY    61  55  82 SW7       29.75F
TWO HARBORS    CLEAR     55  50  82 NW3       29.73S
SILVER BAY     CLEAR     55  54  94 W3        29.72S
GRAND MARAIS     N/A     56  54  93 SW3       29.69R
G MARAIS ARPRT CLEAR     54  48  82 W6        29.73S
$$
MNZ029>031-032-039>041-046>048-054>057-064-020500-
   West Central Minnesota

CITY           SKY/WX    TMP DP  RH WIND       PRES   REMARKS
FERGUS FALLS   CLEAR     57  52  82 CALM      29.82S
WHEATON        MOCLDY    57  55  94 SW3       29.84F
MORRIS         MOCLDY    63  55  77 W9        29.82S
ALEXANDRIA     PTCLDY    60  54  80 S3        29.84S
ELBOW LAKE     FAIR      60  55  83 SE3       29.82S
WADENA         PTCLDY    54  52  94 CALM      29.81S
GLENWOOD       MOCLDY    63  55  77 W7        29.84S
APPLETON       CLOUDY    63  55  77 W7        29.82S
BENSON         CLOUDY    61  55  82 NW6       29.82S
ORTONVILLE     CLOUDY    63  54  72 NW6       29.83S
MADISON        CLOUDY    64  55  72 W5        29.82S
WILLMAR        FAIR      63  55  77 W6        29.84S
$$
MNZ033>034-036-042>043-049>051-058-059-020500-
   Central Minnesota

CITY           SKY/WX    TMP DP  RH WIND       PRES   REMARKS
ST CLOUD       PTCLDY    65  53  65 N6        29.81R
SAUK CENTRE    FAIR      57  54  88 CALM      29.83S
PAYNESVILLE    MOCLDY    60  59  97 SW3       29.82S
AITKIN         MOCLDY    61  54  77 SW3       29.77R
PINE RIVER     PTCLDY    55  55 100 CALM      29.84R
BRAINERD       MOCLDY    55  54  96 SW5       29.80R
STAPLES        MOCLDY    54  52  94 CALM      29.81R
LONG PRAIRIE   FAIR      55  52  88 CALM      29.82F
LITTLE FALLS   MOCLDY    57  52  82 CALM      29.82S
LITCHFIELD     PTCLDY    64  61  88 CALM      29.82S
BUFFALO        CLEAR     63  57  82 CALM      29.81F
MAPLE LAKE     PTCLDY    64  60  87 CALM      29.81F
$$
MNZ037-044-045-052-053-020500-
   East Central Minnesota

CITY           SKY/WX    TMP DP  RH WIND       PRES   REMARKS
PRINCETON      PTCLDY    63  59  88 W8G17     29.82R
MORA           PTCLDY    61  52  72 NW3       29.83R
CAMBRIDGE      PTCLDY    63  54  72 W6        29.80R
RUSH CITY      MOCLDY    58  56  93 CALM      29.80S
MOOSE LAKE     MOCLDY    55  54  94 S6        29.75S
HINCKLEY       MOCLDY    59  55  88 W5        29.80R
CLOQUET        MOCLDY    59  52  77 SW5       29.76S
MCGREGOR       CLOUDY    61  54  77 NW5       29.78R
$$
MNZ071>073-080-081-089-090-097-098-020500-
   Southwest Minnesota

CITY           SKY/WX    TMP DP  RH WIND       PRES   REMARKS
MONTEVIDEO     CLOUDY    63  54  72 CALM      29.84S
GRANITE FALLS  MOCLDY    60  56  89 SW6       29.85F
CANBY          CLOUDY    64  51  64 W6        29.85F
MARSHALL       MOCLDY    63  52  67 NW7       29.84R
REDWOOD FALLS  PTCLDY    65  58  78 W9        29.83R
OLIVIA         MOCLDY    63  57  82 W5        29.82S
PIPESTONE      MOCLDY    61  55  82 CALM      29.88S
WINDOM         CLEAR     61  55  82 W5        29.87R
WORTHINGTON    PTCLDY    61  55  82 W7        29.88S
JACKSON        CLEAR     59  55  88 W5        29.87S
TRACY          PTCLDY    63  58  84 SW5       29.86R
SLAYTON        MOCLDY    61  57  85 CALM      29.88S
$$
MNZ065>067-074>077-082>085-091>093-020500-
   South Central Minnesota

CITY           SKY/WX    TMP DP  RH WIND       PRES   REMARKS
MANKATO        CLEAR     63  55  77 SW6       29.83F
NEW ULM        CLEAR     61  61 100 SW3       29.83S
ST JAMES       CLEAR     63  59  88 SW5       29.85S
FAIRMONT       CLEAR     61  55  82 SW6       29.85S
GLENCOE        CLEAR     64  57  78 CALM      29.81F
FARIBAULT      CLEAR     64  57  77 S3        29.83F
OWATONNA       CLEAR     59  55  88 CALM      29.84S
WASECA         CLEAR     55  52  88 CALM      29.86S
ALBERT LEA     CLEAR     61  59  94 CALM      29.85R
$$
MNZ078>079-086>088-094>096-020500-
   Southeast Minnesota

CITY           SKY/WX    TMP DP  RH WIND       PRES   REMARKS
ROCHESTER      CLEAR     60  56  86 W7        29.86R
RED WING       CLEAR     61  57  88 CALM      29.81S
STANTON        CLEAR     61  57  88 S3        29.81S
DODGE CENTER   CLEAR     61  57  88 W6        29.85R
WINONA         PTCLDY    61  59  94 CALM      29.82R
AUSTIN         CLEAR     59  57  94 SW3       29.85R
PRESTON        PTCLDY    62  60  94 CALM      29.86R
$$
ABBREVIATIONS USED IN REMARKS
   TC - TEMPERATURES IN CELSIUS
  WCI - WIND CHILL INDEX
   HX - HEAT INDEX
  VSB - VISIBILITY
$$



USA.gov is the U.S. government's official web portal to all federal, state and local government web resources and services.